Regional Weather Roundup
Issued by NWS

Home | Current Version | Previous Version | Text Only | Print | Product List | Glossary On
Versions: 1 2 3 4 5 6 7 8 9 10 11 12 13 14 15 16 17 18 19 20 21 22 23 24 25 26 27 28 29 30 31 32 33 34 35 36 37 38 39 40 41 42 43 44 45 46 47 48 49 50
000
ASUS43 KMKX 242020
RWRWI

WISCONSIN REGIONAL WEATHER ROUNDUP
NATIONAL WEATHER SERVICE MILWAUKEE/SULLIVAN WI
300 PM CDT TUE APR 24 2018

NOTE: "FAIR" INDICATES FEW OR NO CLOUDS BELOW 12,000 FEET WITH NO
SIGNIFICANT WEATHER AND/OR OBSTRUCTIONS TO VISIBILITY.

WIZ001-002-006>008-014>016-023>028-242100-
NORTHWEST WISCONSIN

CITY           SKY/WX    TMP DP  RH WIND       PRES   REMARKS
SUPERIOR ARPT  FAIR      52  32  47 N5        30.21F
ASHLAND        CLOUDY    46  29  51 NE6       30.21S
HAYWARD        LGT RAIN  53  34  48 N12G17    30.18R
SIREN          LGT RAIN  52  31  44 N14G20    30.20R
CUMBERLAND     PTSUNNY   55  32  41 N13       30.15S
RICE LAKE      FAIR      59  31  34 N12G18    30.16S
CHETEK         FAIR      58  34  39 N9        30.13S
LADYSMITH      FAIR      61  32  33 N13G21    30.13S
EAU CLAIRE     FAIR      69  34  27 N10G20    30.08S
MENOMONIE      FAIR      66  31  26 N14G24    30.11S
NEW RICHMOND   PTSUNNY   60  31  33 N17       30.15S
OSCEOLA        FAIR      60  31  34 N13G20    30.19S
$$

WIZ003>005-009-010-017-018-242100-
NORTH CENTRAL WISCONSIN

CITY           SKY/WX    TMP DP  RH WIND       PRES   REMARKS
MANITOWISH WTR PTSUNNY   51  29  43 N12       30.13R
ARBOR VITAE    FAIR      57  31  37 N13       30.10S
WOODRUFF       FAIR      57  31  37 N13       30.10S
RHINELANDER    FAIR      61  31  32 N8        30.08F
EAGLE RIVER    FAIR      57  29  33 N9        30.09S
LAND O LAKES   PTSUNNY   56  28  34 N10       30.12S
PHILLIPS       FAIR      61  33  35 N9        30.10S
TOMAHAWK       FAIR      62  31  31 NW7       30.08S
MEDFORD        FAIR      64  35  34 N9G16     30.06F
MERRILL        FAIR      67  35  31 NE16      30.06S
$$

WIZ029-030-035-036-043>047-242100-
CENTRAL WISCONSIN

CITY           SKY/WX    TMP DP  RH WIND       PRES   REMARKS
WAUSAU         CLOUDY    66  35  31 N8        30.02S
MOSINEE        CLOUDY    66  34  30 NW5       30.04F
MARSHFIELD     PTSUNNY   66  37  34 N8        30.03F
STEVENS POINT  CLOUDY    67  30  25 N8        30.03F
WAUPACA        CLOUDY    71  27  19 E6        30.03F
WAUTOMA        FAIR      69  29  22 VRB5      30.02F
WISC RAPIDS    FAIR      72  31  22 N9        30.04F
CAMP DOUGLAS   MOSUNNY   73  36  25 N8        30.02F
$$

WIZ011>013-019>022-031-037>040-048>050-242100-
NORTHEAST WISCONSIN

CITY           SKY/WX    TMP DP  RH WIND       PRES   REMARKS
ANTIGO         CLOUDY    61  37  40 N7        30.05S
SHAWANO        CLOUDY    65  33  30 SE5       30.04F
OCONTO         FAIR      61  29  30 SE7       30.05S
STURGEON BAY   PTSUNNY   60  29  30 N10       30.06F
GREEN BAY      FAIR      64  32  30 NE7       30.04F
MANITOWOC      FAIR      58  50  75 SE8       30.05F
APPLETON       NOT AVBL
CLINTONVILLE   CLOUDY    64  30  27 SW3       30.03F
OSHKOSH        FAIR      66  33  29 NE9       30.02F
$$

WIZ032>034-041-042-053>061-242100-
SOUTHWEST WISCONSIN

CITY           SKY/WX    TMP DP  RH WIND       PRES   REMARKS
LA CROSSE      FAIR      73  35  25 W10       30.03F
SPARTA         CLOUDY    70  35  28 N6        30.04F
VIROQUA        FAIR      69  38  32 N5        30.05S
BOSCOBEL       FAIR      75  34  22 VRB7      30.02F
PRAIRIE DU CHI FAIR      72  29  20 NW7       30.02F
PLATTEVILLE    FAIR      72  31  21 N9        30.02F
$$

WIZ056-057-062-063-064-067-068-242100-
SOUTH CENTRAL WISCONSIN

CITY           SKY/WX    TMP DP  RH WIND       PRES   REMARKS
REEDSBURG      FAIR      70  35  27 W8        30.01F
BARABOO/DELLS  CLOUDY    71  28  20 N7        30.02F
LONE ROCK      PTSUNNY   73  32  22 N12       30.01F
MINERAL POINT  FAIR      73  27  17 N9        30.02F
MADISON        FAIR      72  29  20 N9        30.01F
MIDDLETON      FAIR      73  26  17 NE8G16    30.01F
WATERTOWN      FAIR      69  32  25 N9        30.00F
MONROE         FAIR      70  23  17 N13       30.00F
JANESVILLE     NOT AVBL
$$

WIZ051-052-058>065-066-070>072-242100-
SOUTHEAST WISCONSIN

CITY           SKY/WX    TMP DP  RH WIND       PRES   REMARKS
MILWAUKEE      PTSUNNY   60  47  61 E9        30.03F
WAUKESHA       SUNNY     66  37  34 E6        30.01F
MILWAUKEE/TIMM SUNNY     63  39  42 NE5       30.02F
RACINE         FAIR      60  47  61 NE7       30.04F
BURLINGTON     FAIR      68  44  42 NE8       29.99F
KENOSHA        FAIR      63  48  58 E10       30.01F
FOND DU LAC    FAIR      65  44  46 N10       30.02F
SHEBOYGAN      FAIR      59  49  69 NE8       30.03F
WEST BEND      FAIR      64  39  39 SE8       30.01F
JUNEAU         FAIR      67  30  25 N7        30.02F
$$

LSZ147-162-242100-
LAKE SUPERIOR

STATION/POSITION TIME  TEMP    WIND        PRES    WAVE
                       AIR SEA DIR/SP/G            HT/PER
                 (UTC) (F)     (DEG/KT/KT) (MB)    (FT/S)
DEVILS ISLAND    2000   48     210/  5/  6 1022.9F
SAXON HARBOR     1930   40      CALM  /  1 1023.0R
$$

LMZ867-665-643>646-242100-
LAKE MICHIGAN

STATION/POSITION TIME  TEMP    WIND        PRES    WAVE
                       AIR SEA DIR/SP/G            HT/PER
                 (UTC) (F)     (DEG/KT/KT) (MB)    (FT/S)
NORTHPORT PIER   1940   47                 1018.3S
KEWAUNEE LAKESHO 1954   45      80/  4/  5 1016.9F
SHEBOYGAN LAKESH 2000   41      20/  7/  7 1017.5F
PORT WASHINGTON  1940   45      50/  6/  8 1017.9F
MILWAUKEE LAKESH 2000   42      40/  4/  4   N/A
KENOSHA   LAKESH 2000   42                 1016.9
$$

TC  - TEMPERATURE IN CELSIUS
VSB - VISIBILITY IN STATUTE MILES
WCI - WIND CHILL INDEX
HX  - HEAT INDEX





USA.gov is the U.S. government's official web portal to all federal, state and local government web resources and services.